Aomen Kexue 1A

operational
NORAD ID: 56731 Int'l Des: 2023-069 Owner: CASC Country: CN
LEOCIRCULAR

Aomen Kexue 1Aについて

説明を読み込み中...

リアルタイム位置

3D地球を読み込み中...

次回通過

高度履歴

Altitude vs Time

uPlot chart will show altitude changes over time

軌道要素

1 56731U 23069A 26071.17392818 .00014957 00000-0 31972-3 0 9998
2 56731 40.9955 34.8191 0028928 325.6821 34.2135 15.44047914158087
Epoch: Mar 12, 2026 • Age: 17 hours

現在のステータス

高度 449.2 km
速度 7.64 km/s
衛星直下点 -10.44°S, 151.73°E
打ち上げ日 May 21, 2023
運用期間 2.8 years
タイプ other

技術仕様

分類 Payload
質量 200.00 kg
乾燥質量 200.00 kg
総質量 200.00 kg
長さ 1.50 m
直径 1.00 m
スパン 4.00 m
形状 Box + 2 Pan
製造者 DFHZ
バスタイプ AK1A
フェーズステータス In Orbit
所有者/国 CASC/CN

大規模コンステレーション

Loading constellations...